Location: Andiroba
(19.8650°S, 43.9258°W)
Time: 01:12:49
(UTC+00:00)

SL-08 RB Rocket - Pass Details

Date: 15 June 2024
Orbit: 640 x 674 km, 97.8° (Epoch: 24 July)

Event Time Altitude Azimuth Distance (km) Brightness Sun altitude
Rises 07:20:20 0° 19° (NNE) 2,961 7.5 -29.1°
Reaches altitude 10° 07:22:32 10° 22° (NNE) 2,062 6.7 -28.6°
Enters shadow 07:26:54 64° 96° (E) 736 4.0 -27.6°
